IW2HNF-3 Weather Reports


time (UTC)temp
F
wind
direction
speed
knots
gust
knots
rain 1hr
in
rain 24hr
in
rain mn
in
humidity
%
barometer
mb
20260503053102 58 350 2.6 5.2 0.00 0.00 0.00 65 1018.1
20260503052038 57 350 2.6 4.3 0.00 0.00 0.00 66 1018.0
20260503051102 56 4 2.6 4.3 0.00 0.00 0.00 67 1018.0
20260503050039 55 332 1.7 3.5 0.00 0.00 0.00 67 1018.0
20260503045102 54 350 2.6 4.3 0.00 0.00 0.00 68 1018.1
20260503044038 54 325 3.5 4.3 0.00 0.00 0.00 68 1018.1
20260503042038 54 332 2.6 4.3 0.00 0.00 0.00 67 1018.0
20260503041103 54 344 2.6 3.5 0.00 0.00 0.00 67 1018.0
20260503040750 54 320 3.5 6.1 0.00 0.00 0.00 68 1018.1
20260503035105 54 330 2.6 4.3 0.00 0.00 0.00 68 1018.0
20260503034039 54 332 3.5 4.3 0.00 0.00 0.00 68 1018.0
20260503033102 54 344 2.6 4.3 0.00 0.00 0.00 68 1017.9
20260503032039 54 337 3.5 5.2 0.00 0.00 0.00 67 1018.0
20260503031103 55 322 2.6 4.3 0.00 0.00 0.00 65 1018.0
20260503030038 55 352 2.6 4.3 0.00 0.00 0.00 65 1018.0
20260503025102 55 339 2.6 4.3 0.00 0.00 0.00 65 1018.1
20260503024038 55 328 2.6 4.3 0.00 0.00 0.00 65 1018.2
20260503023102 55 333 2.6 4.3 0.00 0.00 0.00 64 1018.3
20260503022039 55 319 2.6 4.3 0.00 0.00 0.00 64 1018.3
20260503021102 56 327 2.6 4.3 0.00 0.00 0.00 63 1018.3
20260503020751 56 336 2.6 4.3 0.00 0.00 0.00 62 1018.3
20260503015102 56 337 2.6 5.2 0.00 0.00 0.00 62 1018.3
20260503014038 56 349 3.5 4.3 0.00 0.00 0.00 61 1018.4
20260503012038 56 347 2.6 4.3 0.00 0.00 0.00 61 1018.5
20260503011102 56 333 2.6 4.3 0.00 0.00 0.00 61 1018.6
20260503010038 56 354 2.6 4.3 0.00 0.00 0.00 61 1018.7
20260503005102 56 344 2.6 4.3 0.00 0.00 0.00 62 1018.8
20260503004039 56 348 1.7 3.5 0.00 0.00 0.00 61 1018.8
20260503003102 57 318 1.7 4.3 0.00 0.00 0.00 60 1019.0
20260503002039 57 344 1.7 4.3 0.00 0.00 0.00 59 1019.1
20260503001103 57 324 2.6 4.3 0.00 0.00 0.00 58 1019.1
20260503000752 58 338 0.9 3.5 0.00 0.00 0.00 56 1019.2
20260502235103 58 314 1.7 3.5 0.00 0.00 0.00 56 1019.3
20260502234038 58 342 1.7 4.3 0.00 0.00 0.00 56 1019.4
20260502233102 58 355 0.9 3.5 0.00 0.00 0.00 56 1019.5
20260502232038 59 343 1.7 4.3 0.00 0.00 0.00 56 1019.6
20260502231102 59 0 0.0 2.6 0.00 0.00 0.00 56 1019.6
20260502230038 58 340 0.0 1.7 0.00 0.00 0.00 56 1019.6
20260502224038 59 315 0.0 2.6 0.00 0.00 0.00 55 1019.7
20260502223103 59 0.0 1.7 0.00 0.00 0.00 55 1019.7
20260502222039 60 0.0 1.7 0.00 0.00 0.00 55 1019.7
20260502221102 60 315 0.0 2.6 0.00 0.00 0.00 53 1019.7
20260502220751 60 0.0 1.7 0.00 0.00 0.00 53 1019.7
20260502215102 60 0.0 0.9 0.00 0.00 0.00 53 1019.8
20260502214038 60 0.0 0.9 0.00 0.00 0.00 53 1019.7
20260502213102 60 0.0 0.9 0.00 0.00 0.00 53 1019.8
20260502212038 60 0.0 1.7 0.00 0.00 0.00 53 1019.9
20260502204038 61 0.0 0.0 0.00 0.00 0.00 50 1019.9
20260502203102 62 0.0 0.0 0.00 0.00 0.00 49 1019.9
20260502202039 62 0.0 0.9 0.00 0.00 0.00 47 1019.8
20260502201102 63 0.0 0.0 0.00 0.00 0.00 45 1019.8
20260502200750 63 0.0 0.0 0.00 0.00 0.00 45 1019.7
20260502195102 64 0.0 0.0 0.00 0.00 0.00 42 1019.6
20260502194038 64 0.0 0.0 0.00 0.00 0.00 42 1019.7
20260502193102 65 0.0 0.0 0.00 0.00 0.00 42 1019.6
20260502192038 65 0.0 0.0 0.00 0.00 0.00 41 1019.6
20260502191103 66 0.0 0.0 0.00 0.00 0.00 38 1019.6
20260502190038 66 0.0 0.0 0.00 0.00 0.00 37 1019.5
20260502185102 67 0.0 0.0 0.00 0.00 0.00 36 1019.5
20260502184038 67 0.0 0.0 0.00 0.00 0.00 34 1019.4
20260502183102 68 0.0 0.0 0.00 0.00 0.00 34 1019.4
20260502182038 69 0.0 0.0 0.00 0.00 0.00 32 1019.4
20260502181102 70 0.0 0.0 0.00 0.00 0.00 31 1019.4
20260502180751 70 0.0 0.0 0.00 0.00 0.00 29 1019.3
20260502164038 73 180 0.0 2.6 0.00 0.00 0.00 24 1019.3
20260502163102 72 161 0.9 3.5 0.00 0.00 0.00 25 1019.4
20260502162038 73 142 0.9 3.5 0.00 0.00 0.00 24 1019.5
20260502161103 73 225 0.9 4.3 0.00 0.00 0.00 24 1019.6
20260502160750 73 138 0.9 3.5 0.00 0.00 0.00 23 1019.7
20260502152038 73 270 0.0 3.5 0.00 0.00 0.00 23 1020.0
20260502151102 73 205 0.9 5.2 0.00 0.00 0.00 22 1020.1
20260502123102 70 126 1.7 5.2 0.00 0.00 0.00 26 1022.3
20260502121103 70 266 1.7 3.5 0.00 0.00 0.00 27 1022.5
20260502120750 70 189 4.3 7.8 0.00 0.00 0.00 27 1022.7
20260502115103 70 146 2.6 7.0 0.00 0.00 0.00 29 1022.8
20260502114038 70 155 3.5 7.8 0.00 0.00 0.00 30 1022.9
20260502110038 68 216 1.7 6.1 0.00 0.00 0.00 32 1023.5
20260502105102 67 157 1.7 4.3 0.00 0.00 0.00 34 1023.7
20260502104039 68 169 2.6 4.3 0.00 0.00 0.00 34 1023.9
20260502103103 68 215 4.3 7.8 0.00 0.00 0.00 34 1024.0
20260502102039 67 22 1.7 3.5 0.00 0.00 0.00 36 1024.0
20260502101102 67 178 3.5 5.2 0.00 0.00 0.00 36 1024.2
20260502100750 67 175 2.6 5.2 0.00 0.00 0.00 37 1024.3
20260502091102 65 180 2.6 3.5 0.00 0.00 0.00 40 1024.9
20260502071103 62 6 0.9 1.7 0.00 0.00 0.00 52 1025.2
20260502070038 61 26 0.9 1.7 0.00 0.00 0.00 54 1025.3
20260502065103 60 9 0.9 2.6 0.00 0.00 0.00 56 1025.3
20260502064038 59 330 1.7 4.3 0.00 0.00 0.00 56 1025.3
20260502063102 58 352 1.7 4.3 0.00 0.00 0.00 59 1025.2
20260502062038 57 341 1.7 4.3 0.00 0.00 0.00 59 1025.2
20260502061102 56 323 1.7 4.3 0.00 0.00 0.00 60 1025.2
20260502060751 56 350 2.6 4.3 0.00 0.00 0.00 62 1025.2
20260502055102 55 6 2.6 5.2 0.00 0.00 0.00 64 1025.2
20260502054038 54 349 3.5 6.1 0.00 0.00 0.00 66 1025.3